Weather History for Bellefontaine, OH

Change the Weather History Date:

Saturday, June 15, 2013

  Actual Average (KDAY) Record (KDAY)
Temperature  
Mean Temperature 66 °F 71 °F  
Max Temperature 77 °F 80 °F 96 °F (1994)
Min Temperature 55 °F 61 °F 47 °F (1933)
Degree Days  
Heating Degree Days 0 1  
Month to date heating degree days 21  
Since 1 June heating degree days 21  
Since 1 July heating degree days 5641  
Cooling Degree Days 1 6  
Month to date cooling degree days 74  
Year to date cooling degree days 144  
Since 1 June cooling degree days 74  
Growing Degree Days 16 (Base 50)    
Moisture  
Dew Point 59 °F    
Average Humidity 77    
Maximum Humidity 100    
Minimum Humidity 50    
Precipitation  
Precipitation 0.00 in 0.14 in 1.26 in (1949)
Month to date precipitation 2.10  
Year to date precipitation 19.14  
Snow  
Snow 0.00 in 0.00 in 0.00 in ()
Month to date snowfall 0.0  
Since 1 June snowfall 0.0  
Since 1 July snowfall 23.3  
Snow Depth -    
Sea Level Pressure  
Sea Level Pressure 30.05 in    
Wind  
Wind Speed 5 mph (SSE)    
Max Wind Speed 12 mph    
Max Gust Speed -    
Visibility 10 miles    
Events      
T = Trace of Precipitation, MM = Missing Value Source: NWS Daily Summary

Daily Weather History Graph

Daily Weather History Graph

Search for Another Location

Airport:

Trip Planner

Search our weather history database for the weather conditions in past years. The results will help you decide how hot, cold, wet, or windy it might be!

Date:

Astronomy

Jun. 15, 2013 Rise Set
Actual Time 6:04 AM EDT 9:07 PM EDT
Civil Twilight 5:31 AM EDT 9:40 PM EDT
Nautical Twilight 4:49 AM EDT 10:22 PM EDT
Astronomical Twilight 4:00 AM EDT 11:11 PM EDT
Moon 12:39 PM EDT (6/15) 12:41 AM EDT (6/15)
Length of Visible Light 16h 08m
Length of Day
15h 02m
Waxing Crescent, 39% of the Moon is Illuminated
Jun 15
Waxing Crescent
Jun 16
First Quarter
Jun 23
Full
Jun 30
Last Quarter
Jul 8
New

Hourly Weather History & Observations

Time (EDT) Temp. Dew Point Humidity Pressure Visibility Wind Dir Wind Speed Gust Speed Precip Events Conditions
12:05 AM 62.6 °F 55.4 °F 77% 30.06 in 10.0 mi ESE 5.8 mph - 0.00 in   Clear
12:25 AM 62.6 °F 55.4 °F 77% 30.06 in 10.0 mi ESE 5.8 mph - 0.00 in   Clear
12:45 AM 62.6 °F 55.4 °F 77% 30.06 in 10.0 mi ESE 5.8 mph - 0.00 in   Clear
1:05 AM 62.6 °F 55.4 °F 77% 30.05 in 10.0 mi ESE 6.9 mph - 0.00 in   Clear
1:25 AM 62.6 °F 55.4 °F 77% 30.05 in 10.0 mi SE 6.9 mph - 0.00 in   Clear
1:45 AM 60.8 °F 55.4 °F 82% 30.04 in 10.0 mi ESE 5.8 mph - 0.00 in   Clear
2:05 AM 60.8 °F 55.4 °F 82% 30.04 in 10.0 mi SE 6.9 mph - 0.00 in   Clear
2:25 AM 57.2 °F 55.4 °F 94% 30.05 in 10.0 mi SE 5.8 mph - 0.00 in   Clear
2:45 AM 57.2 °F 55.4 °F 94% 30.05 in 10.0 mi South 4.6 mph - 0.00 in   Clear
3:05 AM 55.4 °F 55.4 °F 100% 30.06 in 10.0 mi Calm Calm - 0.00 in   Clear
3:25 AM 55.4 °F 55.4 °F 100% 30.07 in 10.0 mi Calm Calm - 0.00 in   Clear
3:45 AM 57.2 °F 57.2 °F 100% 30.08 in 10.0 mi Calm Calm - 0.00 in   Clear
4:05 AM 55.4 °F 55.4 °F 100% 30.08 in 10.0 mi SE 3.5 mph - 0.00 in   Clear
4:25 AM 55.4 °F 55.4 °F 100% 30.08 in 10.0 mi SE 3.5 mph - 0.00 in   Clear
4:45 AM 55.4 °F 55.4 °F 100% 30.08 in 10.0 mi SSE 3.5 mph - 0.00 in   Clear
5:05 AM 55.4 °F 55.4 °F 100% 30.09 in 10.0 mi SE 4.6 mph - 0.00 in   Clear
5:25 AM 55.4 °F 55.4 °F 100% 30.08 in 10.0 mi SE 5.8 mph - 0.00 in   Clear
5:45 AM 55.4 °F 55.4 °F 100% 30.08 in 10.0 mi SE 5.8 mph - 0.00 in   Clear
6:05 AM 55.4 °F 55.4 °F 100% 30.08 in 10.0 mi SSE 3.5 mph - 0.00 in   Clear
6:25 AM 57.2 °F 57.2 °F 100% 30.10 in 10.0 mi SE 3.5 mph - 0.00 in   Clear
6:45 AM 57.2 °F 57.2 °F 100% 30.10 in 10.0 mi SE 4.6 mph - 0.00 in   Clear
7:05 AM 57.2 °F 57.2 °F 100% 30.11 in 10.0 mi SE 3.5 mph - 0.00 in   Clear
7:25 AM 59.0 °F 57.2 °F 94% 30.11 in 10.0 mi SE 4.6 mph - 0.00 in   Clear
7:45 AM 62.6 °F 59.0 °F 88% 30.11 in 10.0 mi SSE 4.6 mph - 0.00 in   Clear
8:05 AM 64.4 °F 57.2 °F 77% 30.12 in 10.0 mi SSE 6.9 mph - 0.00 in   Clear
8:25 AM 64.4 °F 57.2 °F 77% 30.12 in 10.0 mi South 6.9 mph - 0.00 in   Clear
8:45 AM 66.2 °F 57.2 °F 73% 30.13 in 10.0 mi South 6.9 mph - 0.00 in   Clear
9:05 AM 66.2 °F 59.0 °F 78% 30.13 in 10.0 mi South 5.8 mph - 0.00 in   Partly Cloudy
9:25 AM 69.8 °F 57.2 °F 64% 30.13 in 10.0 mi South 4.6 mph - 0.00 in   Scattered Clouds
9:45 AM 69.8 °F 57.2 °F 64% 30.13 in 10.0 mi South 5.8 mph - 0.00 in   Partly Cloudy
10:05 AM 71.6 °F 57.2 °F 60% 30.12 in 10.0 mi SSW 10.4 mph - 0.00 in   Partly Cloudy
10:25 AM 71.6 °F 57.2 °F 60% 30.11 in 10.0 mi SSW 10.4 mph - 0.00 in   Clear
10:45 AM 73.4 °F 57.2 °F 57% 30.10 in 10.0 mi SSW 9.2 mph - 0.00 in   Clear
11:05 AM 73.4 °F 57.2 °F 57% 30.09 in 10.0 mi SW 9.2 mph - 0.00 in   Clear
11:25 AM 73.4 °F 57.2 °F 57% 30.09 in 10.0 mi SSW 11.5 mph - 0.00 in   Clear
11:45 AM 75.2 °F 55.4 °F 50% 30.08 in 10.0 mi WSW 6.9 mph - 0.00 in   Partly Cloudy
12:05 PM 75.2 °F 55.4 °F 50% 30.07 in 10.0 mi SSW 5.8 mph - 0.00 in   Scattered Clouds
12:25 PM 75.2 °F 57.2 °F 53% 30.06 in 10.0 mi SSW 6.9 mph - 0.00 in   Mostly Cloudy
12:45 PM 75.2 °F 55.4 °F 50% 30.05 in 10.0 mi South 6.9 mph - 0.00 in   Partly Cloudy
1:05 PM 75.2 °F 57.2 °F 53% 30.05 in 10.0 mi South 6.9 mph - 0.00 in   Scattered Clouds
1:25 PM 75.2 °F 55.4 °F 50% 30.04 in 10.0 mi South 9.2 mph - 0.00 in   Scattered Clouds
1:45 PM 75.2 °F 57.2 °F 53% 30.04 in 10.0 mi South 6.9 mph - 0.00 in   Scattered Clouds
2:05 PM 75.2 °F 57.2 °F 53% 30.03 in 10.0 mi SSW 8.1 mph - 0.00 in   Partly Cloudy
2:25 PM 77.0 °F 57.2 °F 50% 30.03 in 10.0 mi SSE 9.2 mph - 0.00 in   Partly Cloudy
2:45 PM 75.2 °F 57.2 °F 53% 30.04 in 10.0 mi South 6.9 mph - 0.00 in   Mostly Cloudy
3:05 PM 73.4 °F 60.8 °F 65% 30.05 in 4.0 mi SSW 6.9 mph - 0.00 in   Mostly Cloudy
3:25 PM 73.4 °F 60.8 °F 65% 30.05 in 10.0 mi Calm Calm - 0.00 in   Partly Cloudy
3:45 PM 75.2 °F 59.0 °F 57% 30.05 in 10.0 mi Calm Calm - 0.00 in   Scattered Clouds
4:05 PM 75.2 °F 57.2 °F 53% 30.05 in 10.0 mi Calm Calm - 0.00 in   Scattered Clouds
4:25 PM 75.2 °F 57.2 °F 53% 30.05 in 10.0 mi Calm Calm - 0.00 in   Partly Cloudy
4:45 PM 75.2 °F 60.8 °F 61% 30.04 in 10.0 mi Calm Calm - 0.00 in   Partly Cloudy
5:05 PM 73.4 °F 60.8 °F 65% 30.04 in 10.0 mi Calm Calm - 0.00 in   Scattered Clouds
5:25 PM 73.4 °F 62.6 °F 69% 30.04 in 10.0 mi Calm Calm - 0.00 in   Partly Cloudy
5:45 PM 73.4 °F 60.8 °F 65% 30.03 in 10.0 mi Calm Calm - 0.00 in   Clear
6:05 PM 73.4 °F 62.6 °F 69% 30.02 in 10.0 mi Calm Calm - 0.00 in   Partly Cloudy
6:25 PM 71.6 °F 64.4 °F 78% 30.02 in 10.0 mi Calm Calm - 0.00 in   Mostly Cloudy
6:45 PM 71.6 °F 64.4 °F 78% 30.01 in 10.0 mi Calm Calm - 0.00 in   Scattered Clouds
7:05 PM 71.6 °F 64.4 °F 78% 30.00 in 10.0 mi Calm Calm - 0.00 in   Partly Cloudy
7:25 PM 71.6 °F 64.4 °F 78% 30.00 in 10.0 mi Calm Calm - 0.00 in   Partly Cloudy
7:45 PM 71.6 °F 64.4 °F 78% 29.99 in 10.0 mi Calm Calm - 0.00 in   Scattered Clouds
8:05 PM 71.6 °F 64.4 °F 78% 29.98 in 10.0 mi Calm Calm - 0.00 in   Partly Cloudy
8:25 PM 71.6 °F 64.4 °F 78% 29.98 in 10.0 mi Calm Calm - 0.00 in   Mostly Cloudy
8:45 PM 69.8 °F 66.2 °F 88% 29.99 in 9.0 mi West 3.5 mph - 0.00 in   Mostly Cloudy
9:05 PM 69.8 °F 66.2 °F 88% 29.98 in 9.0 mi Calm Calm - 0.00 in   Mostly Cloudy
9:25 PM 68.0 °F 64.4 °F 88% 29.98 in 10.0 mi East 3.5 mph - 0.00 in   Mostly Cloudy
9:45 PM 69.8 °F 64.4 °F 83% 29.98 in 10.0 mi East 5.8 mph - 0.00 in   Scattered Clouds
10:05 PM 68.0 °F 66.2 °F 94% 29.99 in 10.0 mi ENE 5.8 mph - 0.00 in   Partly Cloudy
10:25 PM 68.0 °F 66.2 °F 94% 29.98 in 10.0 mi East 5.8 mph - 0.00 in   Partly Cloudy
10:45 PM 68.0 °F 64.4 °F 88% 29.99 in 10.0 mi ENE 4.6 mph - 0.00 in   Partly Cloudy
11:05 PM 68.0 °F 64.4 °F 88% 29.98 in 10.0 mi SE 3.5 mph - 0.00 in   Scattered Clouds
11:25 PM 68.0 °F 64.4 °F 88% 29.97 in 10.0 mi SE 4.6 mph - 0.00 in   Scattered Clouds
11:45 PM 68.0 °F 64.4 °F 88% 29.97 in 10.0 mi SE 5.8 mph - 0.00 in   Mostly Cloudy